Weather History for Melfa, VA

Change the Weather History Date:

Monday, November 19, 2012

  Actual Average (KWAL) Record (KWAL)
Temperature  
Mean Temperature 53 °F 49 °F  
Max Temperature 55 °F 58 °F 72 °F (1985)
Min Temperature 51 °F 40 °F 25 °F (2005)
Degree Days  
Heating Degree Days 12    
Month to date heating degree days  
Since 1 July heating degree days  
Cooling Degree Days 0    
Month to date cooling degree days  
Year to date cooling degree days  
Growing Degree Days 3 (Base 50)    
Moisture  
Dew Point 47 °F    
Average Humidity 78    
Maximum Humidity 82    
Minimum Humidity 72    
Precipitation  
Precipitation 0.00 in 0.09 in 0.75 in (2003)
Month to date precipitation 1.79  
Year to date precipitation 36.33  
Sea Level Pressure  
Sea Level Pressure 30.27 in    
Wind  
Wind Speed 11 mph (NNE)    
Max Wind Speed 20 mph    
Max Gust Speed 24 mph    
Visibility 10 miles    
Events      
T = Trace of Precipitation, MM = Missing Value Source: NWS Daily Summary

Daily Weather History Graph

Daily Weather History Graph

Search for Another Location

Airport:

Trip Planner

Search our weather history database for the weather conditions in past years. The results will help you decide how hot, cold, wet, or windy it might be!

Date:

Astronomy

Nov. 19, 2012 Rise Set
Actual Time 6:47 AM EST 4:49 PM EST
Civil Twilight 6:19 AM EST 5:17 PM EST
Nautical Twilight 5:47 AM EST 5:49 PM EST
Astronomical Twilight 5:16 AM EST 6:20 PM EST
Moon 11:51 AM EST (11/19) 11:10 PM EST (11/19)
Length of Visible Light 10h 57m
Length of Day
10h 01m
Waxing Crescent, 40% of the Moon is Illuminated
Nov 19
Waxing Crescent
Nov 20
First Quarter
Nov 28
Full
Dec 6
Last Quarter
Dec 13
New

Hourly Weather History & Observations

Time (EST) Temp. Dew Point Humidity Pressure Visibility Wind Dir Wind Speed Gust Speed Precip Events Conditions
12:15 AM 55.4 °F 46.4 °F 72% 30.37 in 10.0 mi NE 19.6 mph 24.2 mph N/A   Overcast
12:35 AM 55.4 °F 46.4 °F 72% 30.37 in 10.0 mi NNE 13.8 mph 19.6 mph N/A   Overcast
1:15 AM 55.4 °F 46.4 °F 72% 30.36 in 10.0 mi NE 10.4 mph 18.4 mph N/A   Overcast
1:35 AM 55.4 °F 46.4 °F 72% 30.36 in 10.0 mi NE 13.8 mph 20.7 mph N/A   Overcast
1:55 AM 55.4 °F 46.4 °F 72% 30.35 in 10.0 mi NE 12.7 mph 21.9 mph N/A   Overcast
2:15 AM 55.4 °F 46.4 °F 72% 30.35 in 10.0 mi NNE 9.2 mph - N/A   Overcast
2:35 AM 53.6 °F 46.4 °F 77% 30.35 in 10.0 mi North 5.8 mph - N/A   Overcast
2:55 AM 51.8 °F 46.4 °F 82% 30.35 in 10.0 mi North 5.8 mph - N/A   Overcast
3:15 AM 51.8 °F 46.4 °F 82% 30.34 in 10.0 mi North 6.9 mph - N/A   Overcast
3:35 AM 51.8 °F 46.4 °F 82% 30.33 in 10.0 mi North 5.8 mph - N/A   Overcast
3:55 AM 51.8 °F 46.4 °F 82% 30.32 in 10.0 mi North 6.9 mph - N/A   Overcast
4:15 AM 51.8 °F 46.4 °F 82% 30.33 in 10.0 mi North 6.9 mph - N/A   Overcast
4:55 AM 51.8 °F 46.4 °F 82% 30.33 in 10.0 mi North 5.8 mph - N/A   Overcast
5:15 AM 51.8 °F 46.4 °F 82% 30.33 in 10.0 mi North 6.9 mph - N/A   Overcast
5:35 AM 51.8 °F 46.4 °F 82% 30.32 in 10.0 mi North 6.9 mph - N/A   Overcast
5:55 AM 51.8 °F 46.4 °F 82% 30.32 in 10.0 mi North 5.8 mph - N/A   Overcast
6:15 AM 51.8 °F 46.4 °F 82% 30.32 in 10.0 mi North 6.9 mph - N/A   Overcast
6:35 AM 53.6 °F 48.2 °F 82% 30.33 in 10.0 mi North 6.9 mph - N/A   Overcast
6:55 AM 53.6 °F 48.2 °F 82% 30.33 in 10.0 mi North 10.4 mph - N/A   Overcast
7:15 AM 53.6 °F 48.2 °F 82% 30.33 in 10.0 mi North 8.1 mph - N/A   Overcast
7:35 AM 53.6 °F 48.2 °F 82% 30.33 in 10.0 mi North 9.2 mph - N/A   Overcast
7:55 AM 53.6 °F 46.4 °F 77% 30.33 in 10.0 mi North 4.6 mph - N/A   Overcast
8:36 AM 53.6 °F 46.4 °F 77% 30.32 in 10.0 mi North 8.1 mph - N/A   Overcast
8:55 AM 53.6 °F 46.4 °F 77% 30.32 in 10.0 mi North 8.1 mph - N/A   Overcast
9:15 AM 53.6 °F 48.2 °F 82% 30.32 in 10.0 mi NNE 11.5 mph - N/A   Overcast
9:35 AM 53.6 °F 48.2 °F 82% 30.32 in 10.0 mi NNE 9.2 mph 17.3 mph N/A   Overcast
9:55 AM 55.4 °F 48.2 °F 77% 30.32 in 10.0 mi NNE 10.4 mph 16.1 mph N/A   Overcast
10:15 AM 55.4 °F 48.2 °F 77% 30.31 in 10.0 mi NNE 16.1 mph 21.9 mph N/A   Overcast
10:35 AM - - N/A% 30.30 in - NNE 15.0 mph 20.7 mph N/A   Unknown
10:55 AM 55.4 °F 48.2 °F 77% 30.29 in 10.0 mi NNE 13.8 mph 20.7 mph N/A   Overcast
11:15 AM 55.4 °F 50.0 °F 82% 30.28 in 10.0 mi NNE 11.5 mph 17.3 mph N/A   Overcast
11:35 AM 55.4 °F 48.2 °F 77% 30.27 in 10.0 mi NNE 15.0 mph 19.6 mph N/A   Overcast
11:55 AM 55.4 °F 48.2 °F 77% 30.27 in 10.0 mi NNE 15.0 mph 21.9 mph N/A   Overcast
12:15 PM 55.4 °F 48.2 °F 77% 30.26 in 10.0 mi North 8.1 mph - N/A   Overcast
12:35 PM 55.4 °F 48.2 °F 77% 30.26 in 10.0 mi North 11.5 mph 18.4 mph N/A   Overcast
12:55 PM 55.4 °F 48.2 °F 77% 30.25 in 10.0 mi North 10.4 mph 16.1 mph N/A   Overcast
1:15 PM 55.4 °F 48.2 °F 77% 30.25 in 10.0 mi North 9.2 mph 18.4 mph N/A   Overcast
1:35 PM 55.4 °F 48.2 °F 77% 30.25 in 10.0 mi North 9.2 mph 17.3 mph N/A   Overcast
1:55 PM 55.4 °F 48.2 °F 77% 30.24 in 10.0 mi NNE 10.4 mph 17.3 mph N/A   Overcast
2:15 PM 55.4 °F 48.2 °F 77% 30.24 in 10.0 mi North 9.2 mph 17.3 mph N/A   Overcast
2:35 PM 53.6 °F 48.2 °F 82% 30.24 in 10.0 mi North 12.7 mph 19.6 mph N/A   Overcast
2:55 PM 53.6 °F 48.2 °F 82% 30.24 in 10.0 mi North 11.5 mph - N/A   Overcast
3:15 PM 53.6 °F 48.2 °F 82% 30.24 in 10.0 mi North 10.4 mph 18.4 mph N/A   Overcast
3:35 PM 53.6 °F 48.2 °F 82% 30.24 in 10.0 mi North 6.9 mph 10.4 mph N/A   Overcast
3:55 PM 53.6 °F 46.4 °F 77% 30.23 in 10.0 mi North 9.2 mph 16.1 mph N/A   Overcast
4:15 PM 53.6 °F 48.2 °F 82% 30.23 in 10.0 mi North 10.4 mph - N/A   Overcast
4:35 PM 53.6 °F 46.4 °F 77% 30.23 in 10.0 mi North 9.2 mph - N/A   Overcast
4:55 PM 53.6 °F 46.4 °F 77% 30.23 in 10.0 mi North 9.2 mph - N/A   Overcast
5:15 PM 53.6 °F 46.4 °F 77% 30.23 in 10.0 mi North 8.1 mph 17.3 mph N/A   Overcast
5:35 PM 53.6 °F 46.4 °F 77% 30.23 in 10.0 mi North 8.1 mph 16.1 mph N/A   Overcast
5:55 PM 53.6 °F 46.4 °F 77% 30.23 in 10.0 mi NNE 10.4 mph 16.1 mph N/A   Overcast
6:15 PM 53.6 °F 46.4 °F 77% 30.22 in 10.0 mi North 9.2 mph - N/A   Overcast
6:35 PM 53.6 °F 46.4 °F 77% 30.22 in 10.0 mi North 15.0 mph 18.4 mph N/A   Overcast
6:55 PM 51.8 °F 46.4 °F 82% 30.22 in 10.0 mi North 8.1 mph - N/A   Overcast
7:15 PM 51.8 °F 44.6 °F 76% 30.22 in 10.0 mi North 11.5 mph 16.1 mph N/A   Overcast
7:35 PM 51.8 °F 44.6 °F 76% 30.22 in 10.0 mi North 10.4 mph - N/A   Overcast
7:55 PM 51.8 °F 44.6 °F 76% 30.21 in 10.0 mi North 10.4 mph - N/A   Overcast
8:15 PM 51.8 °F 44.6 °F 76% 30.21 in 10.0 mi North 10.4 mph 19.6 mph N/A   Overcast
8:35 PM 51.8 °F 44.6 °F 76% 30.20 in 10.0 mi NNE 11.5 mph 16.1 mph N/A   Overcast
8:55 PM 51.8 °F 44.6 °F 76% 30.20 in 10.0 mi NNE 10.4 mph 18.4 mph N/A   Overcast
9:15 PM 51.8 °F 44.6 °F 76% 30.20 in 10.0 mi NNE 9.2 mph - N/A   Overcast
9:35 PM 51.8 °F 44.6 °F 76% 30.20 in 10.0 mi North 9.2 mph - N/A   Overcast
10:35 PM 51.8 °F 44.6 °F 76% 30.18 in 10.0 mi North 8.1 mph - N/A   Overcast
10:55 PM 51.8 °F 44.6 °F 76% 30.18 in 10.0 mi NNE 8.1 mph - N/A   Overcast
11:15 PM 51.8 °F 44.6 °F 76% 30.18 in 10.0 mi NNE 5.8 mph - N/A   Overcast
11:36 PM 51.8 °F 46.4 °F 82% 30.18 in 10.0 mi NE 15.0 mph 19.6 mph N/A   Overcast
11:55 PM 51.8 °F 46.4 °F 82% 30.17 in 10.0 mi NNE 11.5 mph 16.1 mph N/A   Overcast